TimeEDT,TemperatureF,Dew PointF,Humidity,Sea Level PressureIn,VisibilityMPH,Wind Direction,Wind SpeedMPH,Gust SpeedMPH,PrecipitationIn,Events,Conditions,WindDirDegrees,DateUTC
12:15 AM,32.5,30.6,92,29.83,3.0,WSW,19.6,23.0,N/A,Snow,Light Snow,250,2013-03-12 04:15:00
12:35 AM,32.5,30.7,93,29.84,4.0,WSW,18.4,23.0,N/A,,Overcast,250,2013-03-12 04:35:00
12:55 AM,32.5,30.6,92,29.84,7.0,West,16.1,-,N/A,,Overcast,260,2013-03-12 04:55:00
1:35 AM,32.4,30.6,93,29.84,5.0,West,19.6,-,N/A,Snow,Light Snow,260,2013-03-12 05:35:00
1:55 AM,32.2,30.4,93,29.85,7.0,West,19.6,25.3,N/A,Snow,Light Snow,260,2013-03-12 05:55:00
2:15 AM,32.2,30.6,94,29.85,7.0,West,15.0,21.9,N/A,,Overcast,260,2013-03-12 06:15:00
2:35 AM,32.2,29.7,90,29.85,5.0,West,19.6,26.5,N/A,,Overcast,260,2013-03-12 06:35:00
2:55 AM,32.2,29.1,88,29.86,7.0,West,20.7,26.5,N/A,,Overcast,260,2013-03-12 06:55:00
3:15 AM,32.2,29.1,88,29.86,5.0,West,19.6,25.3,N/A,Snow,Light Snow,260,2013-03-12 07:15:00
3:35 AM,32.0,28.8,88,29.86,7.0,West,17.3,-,N/A,,Overcast,270,2013-03-12 07:35:00
3:55 AM,32.0,28.8,88,29.86,5.0,West,18.4,25.3,N/A,Snow,Light Snow,270,2013-03-12 07:55:00
4:15 AM,32.0,28.9,88,29.86,2.5,West,13.8,21.9,N/A,Snow,Light Snow,270,2013-03-12 08:15:00
4:35 AM,32.0,28.6,87,29.86,2.5,West,19.6,24.2,N/A,Snow,Light Snow,270,2013-03-12 08:35:00
4:55 AM,32.0,28.2,86,29.87,10.0,West,18.4,-,N/A,,Overcast,270,2013-03-12 08:55:00
5:15 AM,32.0,28.6,87,29.87,3.0,West,17.3,23.0,N/A,Snow,Light Snow,280,2013-03-12 09:15:00
5:35 AM,31.8,28.8,88,29.88,2.0,West,17.3,27.6,N/A,Snow,Light Snow,280,2013-03-12 09:35:00
5:55 AM,32.0,27.9,85,29.88,7.0,West,17.3,-,N/A,Snow,Light Snow,280,2013-03-12 09:55:00
6:15 AM,32.0,27.3,83,29.89,10.0,West,15.0,25.3,N/A,,Overcast,280,2013-03-12 10:15:00
6:35 AM,32.0,27.7,84,29.89,10.0,West,15.0,-,N/A,,Overcast,280,2013-03-12 10:35:00
6:55 AM,32.0,27.5,83,29.90,10.0,West,16.1,19.6,N/A,,Overcast,280,2013-03-12 10:55:00
7:15 AM,31.8,27.7,85,29.90,10.0,West,18.4,-,N/A,,Overcast,280,2013-03-12 11:15:00
7:35 AM,31.5,27.5,85,29.91,10.0,WNW,18.4,-,N/A,,Overcast,290,2013-03-12 11:35:00
7:55 AM,31.5,26.8,83,29.91,10.0,WNW,13.8,-,N/A,,Overcast,290,2013-03-12 11:55:00
8:15 AM,31.5,26.8,83,29.92,10.0,West,20.7,-,N/A,,Overcast,280,2013-03-12 12:15:00
8:35 AM,31.1,26.4,83,29.93,10.0,West,18.4,23.0,N/A,,Overcast,280,2013-03-12 12:35:00
8:55 AM,31.1,26.1,82,29.93,10.0,West,15.0,-,N/A,,Overcast,270,2013-03-12 12:55:00
9:15 AM,31.1,26.1,82,29.94,10.0,West,13.8,-,N/A,,Overcast,270,2013-03-12 13:15:00
9:35 AM,31.1,25.9,81,29.94,10.0,West,15.0,23.0,N/A,,Overcast,260,2013-03-12 13:35:00
9:55 AM,31.1,25.9,81,29.94,10.0,West,19.6,-,N/A,,Overcast,260,2013-03-12 13:55:00
10:15 AM,31.1,25.5,80,29.95,10.0,West,18.4,23.0,N/A,,Overcast,270,2013-03-12 14:15:00
10:35 AM,31.1,25.3,79,29.94,7.0,West,15.0,-,N/A,Snow,Light Snow,270,2013-03-12 14:35:00
10:55 AM,31.1,24.4,76,29.94,7.0,West,16.1,-,N/A,,Overcast,280,2013-03-12 14:55:00
11:15 AM,31.3,24.8,77,29.96,7.0,West,13.8,23.0,N/A,,Overcast,280,2013-03-12 15:15:00
11:35 AM,31.1,24.4,76,29.96,10.0,West,19.6,-,N/A,,Overcast,270,2013-03-12 15:35:00
11:55 AM,31.1,23.7,74,29.98,7.0,West,17.3,26.5,N/A,,Overcast,270,2013-03-12 15:55:00
12:15 PM,31.3,24.1,75,29.97,10.0,West,18.4,-,N/A,,Overcast,270,2013-03-12 16:15:00
12:35 PM,31.8,24.1,73,29.98,1.5,West,19.6,-,N/A,Snow,Light Snow,270,2013-03-12 16:35:00
12:55 PM,32.0,25.0,75,29.98,7.0,WSW,15.0,-,N/A,,Overcast,250,2013-03-12 16:55:00
1:15 PM,32.0,25.5,77,29.97,7.0,West,17.3,-,N/A,,Overcast,260,2013-03-12 17:15:00
1:35 PM,32.9,26.1,76,29.97,10.0,West,17.3,-,N/A,,Overcast,260,2013-03-12 17:35:00
1:55 PM,33.6,26.2,74,29.97,10.0,WSW,17.3,24.2,N/A,,Overcast,250,2013-03-12 17:55:00
2:15 PM,34.3,26.4,73,29.97,10.0,WSW,20.7,24.2,N/A,,Overcast,250,2013-03-12 18:15:00
2:35 PM,34.7,26.8,73,29.96,10.0,West,17.3,24.2,N/A,,Overcast,270,2013-03-12 18:35:00
2:55 PM,35.8,27.3,71,29.95,7.0,West,16.1,24.2,N/A,,Mostly Cloudy,260,2013-03-12 18:55:00
3:15 PM,37.0,28.0,70,29.95,7.0,West,18.4,24.2,N/A,,Overcast,260,2013-03-12 19:15:00
3:35 PM,37.6,27.9,68,29.95,7.0,West,19.6,28.8,N/A,,Overcast,260,2013-03-12 19:35:00
3:55 PM,37.6,27.1,66,29.95,10.0,West,21.9,25.3,N/A,,Overcast,270,2013-03-12 19:55:00
4:15 PM,37.6,27.1,66,29.94,7.0,West,18.4,24.2,N/A,,Overcast,270,2013-03-12 20:15:00
4:35 PM,37.9,27.0,65,29.94,7.0,West,20.7,27.6,N/A,,Overcast,260,2013-03-12 20:35:00
4:55 PM,37.8,26.4,64,29.95,10.0,West,23.0,27.6,N/A,,Overcast,260,2013-03-12 20:55:00
5:15 PM,37.2,25.9,64,29.95,10.0,West,21.9,26.5,N/A,,Overcast,260,2013-03-12 21:15:00
5:35 PM,36.7,26.1,65,29.96,7.0,West,20.7,-,N/A,,Overcast,280,2013-03-12 21:35:00
5:55 PM,36.9,27.0,67,29.96,7.0,WNW,21.9,27.6,N/A,,Overcast,290,2013-03-12 21:55:00
6:15 PM,36.7,26.4,66,29.97,7.0,West,20.7,24.2,N/A,,Mostly Cloudy,280,2013-03-12 22:15:00
6:35 PM,36.3,26.2,67,29.97,10.0,West,19.6,24.2,N/A,,Mostly Cloudy,280,2013-03-12 22:35:00
6:55 PM,36.0,25.7,66,29.97,5.0,West,15.0,-,N/A,,Haze,280,2013-03-12 22:55:00
7:15 PM,35.8,26.2,68,29.97,10.0,West,9.2,-,N/A,,Overcast,280,2013-03-12 23:15:00
7:35 PM,35.1,26.2,70,29.97,10.0,West,8.1,-,N/A,,Scattered Clouds,270,2013-03-12 23:35:00
7:55 PM,34.0,26.2,73,29.96,10.0,WSW,6.9,-,N/A,,Scattered Clouds,240,2013-03-12 23:55:00
8:15 PM,34.3,25.3,70,29.96,10.0,WSW,6.9,-,N/A,,Overcast,240,2013-03-13 00:15:00
8:35 PM,34.2,26.6,74,29.99,3.0,WNW,18.4,28.8,N/A,Snow,Light Snow,290,2013-03-13 00:35:00
8:55 PM,32.4,29.8,90,29.99,1.0,West,16.1,-,N/A,Snow,Light Snow,270,2013-03-13 00:55:00
9:15 PM,32.0,30.7,95,29.99,3.0,West,13.8,-,N/A,Snow,Light Snow,270,2013-03-13 01:15:00
9:35 PM,32.2,30.9,95,29.99,3.0,West,15.0,21.9,N/A,Snow,Light Snow,280,2013-03-13 01:35:00
9:55 PM,32.0,30.7,95,30.00,4.0,WNW,17.3,-,N/A,Snow,Light Snow,290,2013-03-13 01:55:00
10:15 PM,32.0,29.1,89,29.99,4.0,West,11.5,-,N/A,Snow,Light Snow,280,2013-03-13 02:15:00
10:35 PM,32.0,28.6,87,29.99,7.0,West,12.7,-,N/A,,Scattered Clouds,270,2013-03-13 02:35:00
10:55 PM,32.0,28.2,86,29.99,7.0,West,12.7,-,N/A,Snow,Light Snow,270,2013-03-13 02:55:00
11:15 PM,31.8,27.5,84,29.99,7.0,West,13.8,-,N/A,,Clear,270,2013-03-13 03:15:00
11:35 PM,31.6,27.0,83,29.99,4.0,West,9.2,-,N/A,Snow,Light Snow,260,2013-03-13 03:35:00
11:55 PM,31.6,27.1,83,29.99,5.0,West,12.7,17.3,N/A,Snow,Light Snow,260,2013-03-13 03:55:00